Tracking 35334 objects as of 12-Sep-2026
HD Live streaming from Space Station
objects crossing your sky now

ARIANE 44LP DEB

Track ARIANE 44LP DEB now!
10-day predictions


NORAD ID: 25540
Int'l Code: 1988-109G
Launch date: December 11, 1988
Source: France (FR)
Launch site: FRENCH GUIANA (FRGUI)

Note: This is SATELLITE DEBRIS
Your satellite tracking list
Your tracking list is empty




NASA's NSSDC Master Catalog

Two Line Element Set (TLE):
1 25540U 88109G   26255.13138752  .00002837  00000-0  28722-2 0  9995
2 25540   6.6337 240.2168 6556745  42.5872 352.8225  3.16572334277997
Source of the keplerian elements: AFSPC